Regional Weather Roundup
Issued by NWS Upton, NY

Home | Current Version | Previous Version | Text Only | Print | Product List | Glossary On
Versions: 1 2 3 4 5 6 7 8 9 10 11 12 13 14 15 16 17 18 19 20 21 22 23 24 25 26 27 28 29 30 31 32 33 34 35 36 37 38 39 40 41 42 43 44 45 46 47 48 49
000
ASUS41 KOKX 010905
RWROKX

REGIONAL WEATHER ROUNDUP
NATIONAL WEATHER SERVICE NEW YORK NY
500 AM EDT FRI AUG 01 2014

NOTE: "FAIR" INDICATES FEW OR NO CLOUDS BELOW 12,000 FEET WITH NO
SIGNIFICANT WEATHER AND/OR OBSTRUCTIONS TO VISIBILITY.

NYZ071-072-176-178-NJZ106-104-011000-
NEW YORK CITY METRO AREA


CITY           SKY/WX    TMP DP  RH WIND       PRES   REMARKS
CENTRAL PARK   CLEAR     71  65  81 VRB5      30.19S
LAGUARDIA APRT MOCLDY    72  66  81 S8        30.16S
KENNEDY INTL   MOCLDY    72  69  90 S10       30.18S
NEWARK/LIBERTY MOCLDY    71  66  84 S7        30.16S
BRNX BOT. GARD   N/A     70  64  83 S3        30.17F
TETERBORO      CLEAR     72  65  78 S6        30.16R
$$

NYZ177-179-078>081-011000-
LONG ISLAND NEW YORK

CITY           SKY/WX    TMP DP  RH WIND       PRES   REMARKS
FARMINGDALE    PTCLDY    71  68  90 SW8       30.18S
ISLIP          PTCLDY    73  68  84 SW7       30.16F
SHIRLEY        PTCLDY    71  67  87 SW6       30.18F
WESTHAMPTON    PTCLDY    70  67  90 SW3       30.20S
MONTAUK POINT    N/A     71  65  81 SW5       30.20S
$$

NYZ052-065-067-011000-
HUDSON VALLEY

CITY           SKY/WX    TMP DP  RH WIND       PRES   REMARKS
WHITE PLAINS   CLEAR     64  63  96 CALM      30.17S FOG
NEWBURGH       MOCLDY    63  61  94 CALM      30.18R
MONTGOMERY     PTCLDY    59  58  96 CALM      30.16R
POUGHKEEPSIE   MOCLDY    63  61  93 CALM      30.15S
ALBANY         LGT RAIN  63  60  90 CALM      30.14F
$$

NJZ001-105-106-008-010-013-015-019>022-104-011000-
NEW JERSEY

CITY           SKY/WX    TMP DP  RH WIND       PRES   REMARKS
NEWARK/LIBERTY MOCLDY    71  66  84 S7        30.16S
TETERBORO      CLEAR     72  65  78 S6        30.16R
CALDWELL       CLEAR     63  59  87 CALM      30.17S
MORRISTOWN     CLEAR     61  59  94 CALM      30.17R FOG
SOMERVILLE     CLEAR     61  58  90 CALM      30.15S
LINDEN         FAIR      71  66  86 CALM      30.18S
SUSSEX         CLEAR     61  57  87 CALM      30.17R FOG
ANDOVER          N/A     60  59  96 CALM      30.17S
TRENTON        CLEAR     68  66  93 S8        30.16S
MILLVILLE      CLOUDY    72  66  81 S3        30.17F
ATLANTIC CITY  CLOUDY    72  67  84 S5        30.17F
WRIGHTSTOWN    CLOUDY    68  66  94 SW8       30.15F
TOMS RIVER     MOCLDY    70  66  88 CALM      30.18S
BELMAR         MOCLDY    70  64  83 SW6       30.17F
$$

PAZ047>061-062-071-011000-
EASTERN PENNSYLVANIA

CITY           SKY/WX    TMP DP  RH WIND       PRES   REMARKS
PHILADELPHIA   CLOUDY    72  66  81 SW7       30.17S
ALLENTOWN      PTCLDY    63  60  90 E3        30.16R
SCRANTON       MOCLDY    64  59  83 CALM      30.16S
$$

CTZ002-004>006-009-010-012-RIZ004-006-007-MAZ004-011-015-011000-
SOUTHERN NEW ENGLAND
 IN CT

CITY           SKY/WX    TMP DP  RH WIND       PRES   REMARKS
BRADLEY INTL   CLOUDY    69  63  81 SW3       30.17S
HARTFORD       CLOUDY    68  65  90 CALM      30.17S
DANBURY        PTCLDY    65  62  90 N6        30.18F FOG
WTRBRY/OXFORD  CLOUDY    68  64  88 S5        30.21R
BRIDGEPORT     PTCLDY    72  69  90 SW7       30.17S
MERIDEN        CLOUDY    68  65  90 CALM      30.18S
NEW HAVEN      PTCLDY    73  68  84 CALM      30.18S
CHESTER        CLOUDY    70  68  94 SW3       30.20S
GROTON         PTCLDY    66  65  96 CALM      30.18S
WILLIMANTIC    MOCLDY    63  61  93 CALM      30.19S

 IN RI

CITY           SKY/WX    TMP DP  RH WIND       PRES   REMARKS
PROVIDENCE     PTCLDY    66  63  90 CALM      30.19S
BLOCK ISLAND   PTCLDY    70  64  83 SW8       30.20R
WESTERLY       PTCLDY    67  64  90 CALM      30.20S

 IN MA

CITY           SKY/WX    TMP DP  RH WIND       PRES   REMARKS
BOSTON         PTCLDY    66  62  87 SW7       30.18S
WORCESTER      CLOUDY    65  63  93 W9        30.20S
WESTFIELD      CLOUDY    64  62  93 CALM      30.18S FOG
PROVINCETOWN   PTCLDY    64  63  94 S6        30.20R
NANTUCKET      FOG       61  59  94 S5        30.20R VSB 1
$$

ANZ330-335-338-340-345-350-353-355-011000-
COASTAL MARINE OBSERVATIONS


STATION/POSITION TIME  SKY/WX   TEMP    WIND        PRES    VSBY  WAVE
                                AIR SEA DIR/SP/G                  HT/PER
                 (UTC)          (F)     (DEG/KT/KT) (MB)    (MI)  (FT/S)
NY HARB ENTRANCE NOT AVBL
4S FIRE IS       NOT AVBL
23SW MTP         0900            70 70              1021.7          3/ 8
HUDSON CANYON    0900            74 74  270/  6/  8 1021.7          3/ 8
EXECUTION ROCKS  0900            72 70  200/ 10/ 12   N/A
WESTERN LI SOUND 0900            72     200/ 10/ 12   N/A           0
CENTRAL LI SOUND 0800            72 72  210/ 12/ 16   N/A           2/ 3
EASTERN LI SOUND 0800            70 67  200/  4/  6   N/A
ROBBINS REEF     0900            71     210/  3/  5   N/A
$$


>>>>>>>>>>>>>>>>>>>>>>>>>>>> KEY <<<<<<<<<<<<<<<<<<<<<<<<<<<
>                                                          <
>     SKY/WX - SKY CONDITION/PRESENT WEATHER               <
>     TMP    - TEMPERATURE IN FAHRENHEIT                   <
>     DP     - DEWPOINT IN FAHRENHEIT                      <
>     RH     - RELATIVE HUMIDITY IN PERCENT                <
>     WIND   - DIRECTION AND SPEED IN MPH                  <
>     PRES   - MEAN SEA LEVEL PRESSURE IN INCHES OF HG     <
>     WCI    - WIND CHILL INDEX                            <
>     VSB    - VISIBILITY IN MILES                         <
>     HX     - HEAT INDEX                                  <
>     TC     - TEMPERATURE IN CELSIUS                      <
>     VRB    - VARIABLE WIND DIRECTION                     <
>                                                          <
>>>>>>>>>>>>>>>>>>>>>>>>>>>> KEY <<<<<<<<<<<<<<<<<<<<<<<<<<<





USA.gov is the U.S. government's official web portal to all federal, state and local government web resources and services.